Year,Month,Day,Hour,Minute,Value (Times are PST for temperature in C)
2018,02,03,00,00,8.90
2018,02,03,00,01,8.80
2018,02,03,00,02,8.80
2018,02,03,00,03,8.80
2018,02,03,00,04,8.80
2018,02,03,00,05,8.80
2018,02,03,00,06,8.80
2018,02,03,00,07,8.80
2018,02,03,00,08,8.70
2018,02,03,00,09,8.70
2018,02,03,00,10,8.70
2018,02,03,00,11,8.70
2018,02,03,00,12,8.70
2018,02,03,00,13,8.70
2018,02,03,00,14,8.70
2018,02,03,00,15,8.60
2018,02,03,00,16,8.60
2018,02,03,00,17,8.60
2018,02,03,00,18,8.60
2018,02,03,00,19,8.60
2018,02,03,00,20,8.60
2018,02,03,00,21,8.60
2018,02,03,00,22,8.50
2018,02,03,00,23,8.50
2018,02,03,00,24,8.50
2018,02,03,00,25,8.50
2018,02,03,00,26,8.50
2018,02,03,00,27,8.40
2018,02,03,00,28,8.40
2018,02,03,00,29,8.40
2018,02,03,00,30,8.40
2018,02,03,00,31,8.40
2018,02,03,00,32,8.40
2018,02,03,00,33,8.40
2018,02,03,00,34,8.40
2018,02,03,00,35,8.40
2018,02,03,00,36,8.40
2018,02,03,00,37,8.40
2018,02,03,00,38,8.40
2018,02,03,00,39,8.40
2018,02,03,00,40,8.50
2018,02,03,00,41,8.60
2018,02,03,00,42,8.60
2018,02,03,00,43,8.60
2018,02,03,00,44,8.60
2018,02,03,00,45,8.60
2018,02,03,00,46,8.60
2018,02,03,00,47,8.60
2018,02,03,00,48,8.60
2018,02,03,00,49,8.60
2018,02,03,00,50,8.50
2018,02,03,00,51,8.50
2018,02,03,00,52,8.40
2018,02,03,00,53,8.40
2018,02,03,00,54,8.40
2018,02,03,00,55,8.30
2018,02,03,00,56,8.30
2018,02,03,00,57,8.30
2018,02,03,00,58,8.30
2018,02,03,00,59,8.20
2018,02,03,01,00,8.20
2018,02,03,01,01,8.20
2018,02,03,01,02,8.20
2018,02,03,01,03,8.20
2018,02,03,01,04,8.20
2018,02,03,01,05,8.20
2018,02,03,01,06,8.20
2018,02,03,01,07,8.10
2018,02,03,01,08,8.10
2018,02,03,01,09,8.10
2018,02,03,01,10,8.10
2018,02,03,01,11,8.10
2018,02,03,01,12,8.10
2018,02,03,01,13,8.00
2018,02,03,01,14,8.00
2018,02,03,01,15,8.00
2018,02,03,01,16,8.00
2018,02,03,01,17,7.90
2018,02,03,01,18,7.90
2018,02,03,01,19,7.90
2018,02,03,01,20,7.90
2018,02,03,01,21,8.00
2018,02,03,01,22,8.00
2018,02,03,01,23,8.00
2018,02,03,01,24,7.90
2018,02,03,01,25,7.90
2018,02,03,01,26,7.90
2018,02,03,01,27,7.90
2018,02,03,01,28,7.90
2018,02,03,01,29,7.90
2018,02,03,01,30,7.90
2018,02,03,01,31,7.90
2018,02,03,01,32,7.90
2018,02,03,01,33,7.90
2018,02,03,01,34,7.80
2018,02,03,01,35,7.80
2018,02,03,01,36,7.80
2018,02,03,01,37,7.80
2018,02,03,01,38,7.80
2018,02,03,01,39,7.80
2018,02,03,01,40,7.80
2018,02,03,01,41,7.80
2018,02,03,01,42,7.80
2018,02,03,01,43,7.80
2018,02,03,01,44,7.80
2018,02,03,01,45,7.70
2018,02,03,01,46,7.70
2018,02,03,01,47,7.70
2018,02,03,01,48,7.70
2018,02,03,01,49,7.70
2018,02,03,01,50,7.70
2018,02,03,01,51,7.70
2018,02,03,01,52,7.70
2018,02,03,01,53,7.70
2018,02,03,01,54,7.60
2018,02,03,01,55,7.60
2018,02,03,01,56,7.60
2018,02,03,01,57,7.60
2018,02,03,01,58,7.60
2018,02,03,01,59,7.60
2018,02,03,02,00,7.60
2018,02,03,02,01,7.60
2018,02,03,02,02,7.60
2018,02,03,02,03,7.60
2018,02,03,02,04,7.60
2018,02,03,02,05,7.60
2018,02,03,02,06,7.60
2018,02,03,02,07,7.60
2018,02,03,02,08,7.60
2018,02,03,02,09,7.60
2018,02,03,02,10,7.60
2018,02,03,02,11,7.60
2018,02,03,02,12,7.60
2018,02,03,02,13,7.60
2018,02,03,02,14,7.60
2018,02,03,02,15,7.60
2018,02,03,02,16,7.60
2018,02,03,02,17,7.60
2018,02,03,02,18,7.60
2018,02,03,02,19,7.60
2018,02,03,02,20,7.60
2018,02,03,02,21,7.60
2018,02,03,02,22,7.60
2018,02,03,02,23,7.60
2018,02,03,02,24,7.70
2018,02,03,02,25,7.80
2018,02,03,02,26,7.80
2018,02,03,02,27,7.90
2018,02,03,02,28,7.90
2018,02,03,02,29,8.00
2018,02,03,02,30,8.00
2018,02,03,02,31,8.00
2018,02,03,02,32,8.00
2018,02,03,02,33,8.10
2018,02,03,02,34,8.10
2018,02,03,02,35,8.10
2018,02,03,02,36,8.10
2018,02,03,02,37,8.00
2018,02,03,02,38,8.00
2018,02,03,02,39,8.10
2018,02,03,02,40,8.20
2018,02,03,02,41,8.30
2018,02,03,02,42,8.30
2018,02,03,02,43,8.30
2018,02,03,02,44,8.30
2018,02,03,02,45,8.30
2018,02,03,02,46,8.30
2018,02,03,02,47,8.40
2018,02,03,02,48,8.40
2018,02,03,02,49,8.40
2018,02,03,02,50,8.40
2018,02,03,02,51,8.40
2018,02,03,02,52,8.40
2018,02,03,02,53,8.40
2018,02,03,02,54,8.30
2018,02,03,02,55,8.30
2018,02,03,02,56,8.40
2018,02,03,02,57,8.40
2018,02,03,02,58,8.30
2018,02,03,02,59,8.30
2018,02,03,03,00,8.30
2018,02,03,03,01,8.30
2018,02,03,03,02,8.20
2018,02,03,03,06,8.00
2018,02,03,03,07,8.00
2018,02,03,03,08,8.00
2018,02,03,03,09,7.90
2018,02,03,03,10,7.90
2018,02,03,03,11,7.90
2018,02,03,03,12,7.80
2018,02,03,03,13,7.80
2018,02,03,03,14,7.80
2018,02,03,03,15,7.80
2018,02,03,03,16,7.80
2018,02,03,03,17,7.70
2018,02,03,03,18,7.70
2018,02,03,03,19,7.70
2018,02,03,03,20,7.70
2018,02,03,03,21,7.70
2018,02,03,03,22,7.70
2018,02,03,03,23,7.70
2018,02,03,03,24,7.70
2018,02,03,03,25,7.70
2018,02,03,03,26,7.80
2018,02,03,03,27,8.00
2018,02,03,03,28,8.10
2018,02,03,03,29,8.20
2018,02,03,03,30,8.40
2018,02,03,03,31,8.50
2018,02,03,03,32,8.70
2018,02,03,03,33,8.70
2018,02,03,03,34,8.80
2018,02,03,03,35,8.90
2018,02,03,03,36,8.90
2018,02,03,03,37,8.80
2018,02,03,03,38,8.70
2018,02,03,03,39,8.70
2018,02,03,03,40,8.60
2018,02,03,03,41,8.60
2018,02,03,03,42,8.50
2018,02,03,03,43,8.40
2018,02,03,03,44,8.40
2018,02,03,03,45,8.40
2018,02,03,03,46,8.40
2018,02,03,03,47,8.40
2018,02,03,03,48,8.40
2018,02,03,03,49,8.40
2018,02,03,03,50,8.40
2018,02,03,03,51,8.40
2018,02,03,03,52,8.50
2018,02,03,03,53,8.60
2018,02,03,03,54,8.60
2018,02,03,03,55,8.70
2018,02,03,03,56,8.80
2018,02,03,03,57,8.80
2018,02,03,03,58,8.90
2018,02,03,03,59,9.00
2018,02,03,04,01,9.30
2018,02,03,04,02,9.40
2018,02,03,04,03,9.40
2018,02,03,04,04,9.40
2018,02,03,04,05,9.40
2018,02,03,04,06,9.40
2018,02,03,04,07,9.40
2018,02,03,04,08,9.40
2018,02,03,04,09,9.40
2018,02,03,04,10,9.40
2018,02,03,04,11,9.40
2018,02,03,04,12,9.40
2018,02,03,04,13,9.40
2018,02,03,04,14,9.40
2018,02,03,04,15,9.40
2018,02,03,05,00,10.50
2018,02,03,05,24,10.30
2018,02,03,05,25,10.30
2018,02,03,05,26,10.30
2018,02,03,05,27,10.20
2018,02,03,05,28,10.20
2018,02,03,05,29,10.20
2018,02,03,05,30,10.20
2018,02,03,05,31,10.10
2018,02,03,05,32,10.10
2018,02,03,05,33,10.10
2018,02,03,05,34,10.10
2018,02,03,05,35,10.00
2018,02,03,05,36,10.00
2018,02,03,05,37,9.90
2018,02,03,05,38,9.90
2018,02,03,05,39,9.80
2018,02,03,05,40,9.80
2018,02,03,05,41,9.80
2018,02,03,05,42,9.70
2018,02,03,05,43,9.70
2018,02,03,05,44,9.60
2018,02,03,05,45,9.60
2018,02,03,05,46,9.50
2018,02,03,05,47,9.40
2018,02,03,05,48,9.40
2018,02,03,05,49,9.40
2018,02,03,05,50,9.30
2018,02,03,05,51,9.30
2018,02,03,05,52,9.30
2018,02,03,05,53,9.30
2018,02,03,05,54,9.20
2018,02,03,05,55,9.20
2018,02,03,05,56,9.20
2018,02,03,05,57,9.10
2018,02,03,05,58,9.10
2018,02,03,05,59,9.00
2018,02,03,06,00,9.00
2018,02,03,06,01,8.90
2018,02,03,06,02,8.90
2018,02,03,06,03,8.80
2018,02,03,06,04,8.80
2018,02,03,06,05,8.70
2018,02,03,06,06,8.70
2018,02,03,06,07,8.60
2018,02,03,06,08,8.60
2018,02,03,06,09,8.50
2018,02,03,06,10,8.50
2018,02,03,06,11,8.40
2018,02,03,06,12,8.40
2018,02,03,06,13,8.30
2018,02,03,06,14,8.30
2018,02,03,06,15,8.20
2018,02,03,06,16,8.20
2018,02,03,06,17,8.10
2018,02,03,06,18,8.10
2018,02,03,06,19,8.00
2018,02,03,06,20,7.90
2018,02,03,06,21,7.90
2018,02,03,06,22,7.90
2018,02,03,06,23,7.80
2018,02,03,06,24,7.80
2018,02,03,06,25,7.80
2018,02,03,06,26,7.70
2018,02,03,06,27,7.70
2018,02,03,06,28,7.70
2018,02,03,06,29,7.70
2018,02,03,06,30,7.70
2018,02,03,06,31,7.60
2018,02,03,06,32,7.60
2018,02,03,06,33,7.60
2018,02,03,06,34,7.60
2018,02,03,06,35,7.60
2018,02,03,06,36,7.50
2018,02,03,06,37,7.50
2018,02,03,06,38,7.50
2018,02,03,06,39,7.50
2018,02,03,06,40,7.40
2018,02,03,06,41,7.30
2018,02,03,06,42,7.30
2018,02,03,06,43,7.30
2018,02,03,06,44,7.20
2018,02,03,06,45,7.20
2018,02,03,06,46,7.20
2018,02,03,06,47,7.20
2018,02,03,06,48,7.10
2018,02,03,06,49,7.10
2018,02,03,06,50,7.10
2018,02,03,06,51,7.10
2018,02,03,06,52,7.10
2018,02,03,06,53,7.10
2018,02,03,06,54,7.00
2018,02,03,06,55,7.00
2018,02,03,06,56,7.00
2018,02,03,06,57,6.90
2018,02,03,06,58,6.90
2018,02,03,06,59,6.90
2018,02,03,07,00,6.90
2018,02,03,07,01,6.90
2018,02,03,07,02,6.80
2018,02,03,07,03,6.80
2018,02,03,07,04,6.80
2018,02,03,07,05,6.80
2018,02,03,07,06,6.80
2018,02,03,07,07,6.70
2018,02,03,07,08,6.70
2018,02,03,07,09,6.70
2018,02,03,07,10,6.70
2018,02,03,07,11,6.70
2018,02,03,07,12,6.70
2018,02,03,07,13,6.70
2018,02,03,07,14,6.70
2018,02,03,07,15,6.70
2018,02,03,07,16,6.70
2018,02,03,07,17,6.70
2018,02,03,07,18,6.70
2018,02,03,07,19,6.70
2018,02,03,07,20,6.60
2018,02,03,07,21,6.60
2018,02,03,07,22,6.60
2018,02,03,07,23,6.60
2018,02,03,07,24,6.60
2018,02,03,07,25,6.60
2018,02,03,07,26,6.60
2018,02,03,07,27,6.60
2018,02,03,07,28,6.60
2018,02,03,07,29,6.50
2018,02,03,07,30,6.50
2018,02,03,07,31,6.50
2018,02,03,07,32,6.50
2018,02,03,07,33,6.40
2018,02,03,07,34,6.40
2018,02,03,07,35,6.40
2018,02,03,07,36,6.40
2018,02,03,07,37,6.30
2018,02,03,07,38,6.30
2018,02,03,07,39,6.30
2018,02,03,07,40,6.20
2018,02,03,07,41,6.20
2018,02,03,07,42,6.20
2018,02,03,07,43,6.20
2018,02,03,07,44,6.20
2018,02,03,07,45,6.20
2018,02,03,07,46,6.20
2018,02,03,07,47,6.20
2018,02,03,07,48,6.20
2018,02,03,07,49,6.10
2018,02,03,07,50,6.10
2018,02,03,07,51,6.10
2018,02,03,07,52,6.10
2018,02,03,07,53,6.10
2018,02,03,07,54,6.10
2018,02,03,07,55,6.10
2018,02,03,07,56,6.10
2018,02,03,07,57,6.10
2018,02,03,07,58,6.10
2018,02,03,07,59,6.10
2018,02,03,08,00,6.00
2018,02,03,08,01,6.00
2018,02,03,08,02,6.00
2018,02,03,08,03,6.00
2018,02,03,08,04,6.00
2018,02,03,08,05,6.00
2018,02,03,08,06,6.00
2018,02,03,08,07,6.00
2018,02,03,08,08,6.00
2018,02,03,08,09,6.00
2018,02,03,08,10,6.00
2018,02,03,08,11,6.00
2018,02,03,08,12,6.00
2018,02,03,08,13,6.00
2018,02,03,08,14,6.00
2018,02,03,08,15,6.00
2018,02,03,08,16,6.00
2018,02,03,08,17,6.00
2018,02,03,08,18,6.00
2018,02,03,08,19,6.00
2018,02,03,08,20,6.00
2018,02,03,08,21,5.90
2018,02,03,08,22,6.00
2018,02,03,08,23,6.00
2018,02,03,08,24,6.00
2018,02,03,08,25,6.00
2018,02,03,08,26,6.10
2018,02,03,08,27,6.10
2018,02,03,08,28,6.10
2018,02,03,08,29,6.10
2018,02,03,08,30,6.10
2018,02,03,08,31,6.10
2018,02,03,08,32,6.10
2018,02,03,08,33,6.10
2018,02,03,08,34,6.10
2018,02,03,08,35,6.10
2018,02,03,08,36,6.20
2018,02,03,08,37,6.20
2018,02,03,08,38,6.20
2018,02,03,08,39,6.20
2018,02,03,08,40,6.20
2018,02,03,08,41,6.20
2018,02,03,08,42,6.20
2018,02,03,08,43,6.20
2018,02,03,08,44,6.20
2018,02,03,08,45,6.10
2018,02,03,08,46,6.10
2018,02,03,08,47,6.10
2018,02,03,08,48,6.10
2018,02,03,08,49,6.10
2018,02,03,08,50,6.10
2018,02,03,08,51,6.10
2018,02,03,08,52,6.10
2018,02,03,08,53,6.10
2018,02,03,08,54,6.10
2018,02,03,08,55,6.10
2018,02,03,08,56,6.20
2018,02,03,08,57,6.20
2018,02,03,08,58,6.20
2018,02,03,08,59,6.20
2018,02,03,09,00,6.30
2018,02,03,09,01,6.30
2018,02,03,09,02,6.30
2018,02,03,09,03,6.30
2018,02,03,09,04,6.40
2018,02,03,09,05,6.40
2018,02,03,09,06,6.40
2018,02,03,09,07,6.40
2018,02,03,09,08,6.40
2018,02,03,09,09,6.40
2018,02,03,09,10,6.50
2018,02,03,09,11,6.50
2018,02,03,09,12,6.50
2018,02,03,09,13,6.50
2018,02,03,09,14,6.50
2018,02,03,09,15,6.50
2018,02,03,09,16,6.50
2018,02,03,09,17,6.50
2018,02,03,09,18,6.50
2018,02,03,09,19,6.50
2018,02,03,09,20,6.50
2018,02,03,09,21,6.50
2018,02,03,09,22,6.50
2018,02,03,09,23,6.50
2018,02,03,09,24,6.50
2018,02,03,09,25,6.50
2018,02,03,09,26,6.50
2018,02,03,09,27,6.50
2018,02,03,09,28,6.50
2018,02,03,09,29,6.50
2018,02,03,09,30,6.50
2018,02,03,09,31,6.50
2018,02,03,09,32,6.50
2018,02,03,09,33,6.50
2018,02,03,09,34,6.60
2018,02,03,09,35,6.60
2018,02,03,09,36,6.60
2018,02,03,09,37,6.70
2018,02,03,09,38,6.70
2018,02,03,09,39,6.70
2018,02,03,09,40,6.70
2018,02,03,09,41,6.80
2018,02,03,09,42,6.80
2018,02,03,09,43,6.80
2018,02,03,09,44,6.80
2018,02,03,09,45,6.80
2018,02,03,09,46,6.80
2018,02,03,09,47,6.90
2018,02,03,09,48,6.90
2018,02,03,09,49,6.90
2018,02,03,09,50,6.90
2018,02,03,09,51,6.90
2018,02,03,09,52,7.00
2018,02,03,09,53,7.00
2018,02,03,09,54,7.10
2018,02,03,09,55,7.10
2018,02,03,09,56,7.10
2018,02,03,09,57,7.10
2018,02,03,09,58,7.20
2018,02,03,09,59,7.20
2018,02,03,10,00,7.30
2018,02,03,10,01,7.30
2018,02,03,10,02,7.30
2018,02,03,10,03,7.30
2018,02,03,10,04,7.40
2018,02,03,10,05,7.40
2018,02,03,10,06,7.40
2018,02,03,10,07,7.40
2018,02,03,10,08,7.40
2018,02,03,10,09,7.50
2018,02,03,10,10,7.50
2018,02,03,10,11,7.50
2018,02,03,10,12,7.50
2018,02,03,10,13,7.60
2018,02,03,10,14,7.60
2018,02,03,10,15,7.60
2018,02,03,10,16,7.60
2018,02,03,10,17,7.70
2018,02,03,10,18,7.70
2018,02,03,10,19,7.70
2018,02,03,10,20,7.70
2018,02,03,10,21,7.80
2018,02,03,10,22,7.80
2018,02,03,10,23,7.80
2018,02,03,10,24,7.80
2018,02,03,10,25,7.80
2018,02,03,10,26,7.80
2018,02,03,10,27,7.70
2018,02,03,10,28,7.70
2018,02,03,10,29,7.70
2018,02,03,10,30,7.70
2018,02,03,10,31,7.70
2018,02,03,10,32,7.70
2018,02,03,10,33,7.70
2018,02,03,10,34,7.70
2018,02,03,10,35,7.70
2018,02,03,10,36,7.70
2018,02,03,10,37,7.70
2018,02,03,10,38,7.80
2018,02,03,10,39,7.80
2018,02,03,10,40,7.80
2018,02,03,10,41,7.80
2018,02,03,10,42,7.80
2018,02,03,10,43,7.80
2018,02,03,10,44,7.90
2018,02,03,10,45,7.90
2018,02,03,10,46,7.90
2018,02,03,10,47,7.90
2018,02,03,10,48,8.00
2018,02,03,10,49,8.00
2018,02,03,10,50,8.00
2018,02,03,10,51,8.00
2018,02,03,10,52,8.10
2018,02,03,10,53,8.10
2018,02,03,10,54,8.10
2018,02,03,10,55,8.10
2018,02,03,10,56,8.20
2018,02,03,10,57,8.20
2018,02,03,10,58,8.20
2018,02,03,10,59,8.20
2018,02,03,11,00,8.20
2018,02,03,11,01,8.20
2018,02,03,11,02,8.20
2018,02,03,11,03,8.20
2018,02,03,11,04,8.20
2018,02,03,11,05,8.20
2018,02,03,11,06,8.20
2018,02,03,11,07,8.20
2018,02,03,11,08,8.10
2018,02,03,11,09,8.10
2018,02,03,11,10,8.10
2018,02,03,11,11,8.10
2018,02,03,11,12,8.10
2018,02,03,11,13,8.10
2018,02,03,11,14,8.10
2018,02,03,11,15,8.10
2018,02,03,11,16,8.10
2018,02,03,11,17,8.10
2018,02,03,11,18,8.10
2018,02,03,11,19,8.10
2018,02,03,11,20,8.10
2018,02,03,11,21,8.10
2018,02,03,11,22,8.10
2018,02,03,11,23,8.10
2018,02,03,11,24,8.20
2018,02,03,11,25,8.20
2018,02,03,11,26,8.20
2018,02,03,11,27,8.20
2018,02,03,11,28,8.20
2018,02,03,11,29,8.20
2018,02,03,11,30,8.20
2018,02,03,11,31,8.20
2018,02,03,11,32,8.20
2018,02,03,11,33,8.20
2018,02,03,11,34,8.20
2018,02,03,11,35,8.20
2018,02,03,11,36,8.20
2018,02,03,11,37,8.30
2018,02,03,11,38,8.30
2018,02,03,11,39,8.30
2018,02,03,11,40,8.30
2018,02,03,11,41,8.30
2018,02,03,11,42,8.30
2018,02,03,11,43,8.30
2018,02,03,11,44,8.30
2018,02,03,11,45,8.40
2018,02,03,11,46,8.40
2018,02,03,11,47,8.40
2018,02,03,11,48,8.40
2018,02,03,11,49,8.40
2018,02,03,11,50,8.40
2018,02,03,11,51,8.40
2018,02,03,11,52,8.50
2018,02,03,11,53,8.50
2018,02,03,11,54,8.50
2018,02,03,11,55,8.60
2018,02,03,11,56,8.60
2018,02,03,11,57,8.60
2018,02,03,11,58,8.60
2018,02,03,11,59,8.60
2018,02,03,12,00,8.70
2018,02,03,12,01,8.70
2018,02,03,12,02,8.70
2018,02,03,12,03,8.80
2018,02,03,12,04,8.80
2018,02,03,12,05,8.80
2018,02,03,12,06,8.80
2018,02,03,12,07,8.80
2018,02,03,12,08,8.80
2018,02,03,12,09,8.90
2018,02,03,12,10,8.90
2018,02,03,12,11,8.90
2018,02,03,12,12,8.90
2018,02,03,12,13,8.90
2018,02,03,12,14,9.00
2018,02,03,12,15,9.00
2018,02,03,12,16,9.00
2018,02,03,12,17,9.10
2018,02,03,12,18,9.10
2018,02,03,12,19,9.10
2018,02,03,12,20,9.10
2018,02,03,12,21,9.20
2018,02,03,12,22,9.20
2018,02,03,12,23,9.20
2018,02,03,12,24,9.20
2018,02,03,12,25,9.20
2018,02,03,12,26,9.20
2018,02,03,12,27,9.20
2018,02,03,12,28,9.20
2018,02,03,12,29,9.20
2018,02,03,12,30,9.20
2018,02,03,12,31,9.20
2018,02,03,12,32,9.20
2018,02,03,12,33,9.20
2018,02,03,12,34,9.20
2018,02,03,12,35,9.20
2018,02,03,12,36,9.20
2018,02,03,12,37,9.20
2018,02,03,12,38,9.20
2018,02,03,12,39,9.20
2018,02,03,12,40,9.20
2018,02,03,12,41,9.20
2018,02,03,12,42,9.20
2018,02,03,12,43,9.20
2018,02,03,12,44,9.20
2018,02,03,12,45,9.20
2018,02,03,12,46,9.20
2018,02,03,12,47,9.20
2018,02,03,12,48,9.20
2018,02,03,12,49,9.20
2018,02,03,12,50,9.20
2018,02,03,12,51,9.20
2018,02,03,12,52,9.20
2018,02,03,12,53,9.20
2018,02,03,12,54,9.20
2018,02,03,12,55,9.20
2018,02,03,12,56,9.20
2018,02,03,12,57,9.20
2018,02,03,12,58,9.20
2018,02,03,12,59,9.20
2018,02,03,13,00,9.20
2018,02,03,13,01,9.20
2018,02,03,13,02,9.20
2018,02,03,13,03,9.20
2018,02,03,13,04,9.20
2018,02,03,13,05,9.20
2018,02,03,13,06,9.20
2018,02,03,13,07,9.20
2018,02,03,13,08,9.20
2018,02,03,13,09,9.20
2018,02,03,13,10,9.20
2018,02,03,13,11,9.20
2018,02,03,13,12,9.20
2018,02,03,13,13,9.20
2018,02,03,13,28,9.70
2018,02,03,13,29,9.70
2018,02,03,13,30,9.70
2018,02,03,13,31,9.70
2018,02,03,13,32,9.70
2018,02,03,13,33,9.70
2018,02,03,13,34,9.70
2018,02,03,13,35,9.70
2018,02,03,13,36,9.70
2018,02,03,13,37,9.70
2018,02,03,13,38,9.70
2018,02,03,13,39,9.70
2018,02,03,13,40,9.70
2018,02,03,13,41,9.70
2018,02,03,13,42,9.70
2018,02,03,13,43,9.70
2018,02,03,13,47,9.60
2018,02,03,13,48,9.50
2018,02,03,13,49,9.50
2018,02,03,13,50,9.50
2018,02,03,13,51,9.40
2018,02,03,13,52,9.40
2018,02,03,13,53,9.40
2018,02,03,13,54,9.40
2018,02,03,13,55,9.40
2018,02,03,13,56,9.40
2018,02,03,13,57,9.40
2018,02,03,13,58,9.40
2018,02,03,13,59,9.40
2018,02,03,14,00,9.40
2018,02,03,14,01,9.40
2018,02,03,14,02,9.40
2018,02,03,14,03,9.40
2018,02,03,14,04,9.40
2018,02,03,14,05,9.40
2018,02,03,14,06,9.40
2018,02,03,14,07,9.40
2018,02,03,14,08,9.30
2018,02,03,14,09,9.40
2018,02,03,14,10,9.30
2018,02,03,14,11,9.30
2018,02,03,14,12,9.30
2018,02,03,14,13,9.30
2018,02,03,14,14,9.20
2018,02,03,14,15,9.20
2018,02,03,14,16,9.20
2018,02,03,14,17,9.20
2018,02,03,14,18,9.20
2018,02,03,14,19,9.20
2018,02,03,14,20,9.20
2018,02,03,14,21,9.20
2018,02,03,14,22,9.20
2018,02,03,14,23,9.10
2018,02,03,14,24,9.10
2018,02,03,14,25,9.10
2018,02,03,14,26,9.10
2018,02,03,14,27,9.10
2018,02,03,14,28,9.10
2018,02,03,14,29,9.10
2018,02,03,14,30,9.10
2018,02,03,14,31,9.10
2018,02,03,14,32,9.10
2018,02,03,14,33,9.10
2018,02,03,14,34,9.10
2018,02,03,14,35,9.10
2018,02,03,14,36,9.10
2018,02,03,14,37,9.10
2018,02,03,14,38,9.10
2018,02,03,14,39,9.10
2018,02,03,14,40,9.10
2018,02,03,14,41,9.10
2018,02,03,14,42,9.20
2018,02,03,14,43,9.20
2018,02,03,14,44,9.20
2018,02,03,14,45,9.20
2018,02,03,14,46,9.20
2018,02,03,14,47,9.20
2018,02,03,14,48,9.20
2018,02,03,14,49,9.20
2018,02,03,14,50,9.20
2018,02,03,14,51,9.20
2018,02,03,14,52,9.20
2018,02,03,14,53,9.20
2018,02,03,14,54,9.30
2018,02,03,14,55,9.30
2018,02,03,14,56,9.30
2018,02,03,14,57,9.30
2018,02,03,14,58,9.30
2018,02,03,14,59,9.30
2018,02,03,15,00,9.30
2018,02,03,15,01,9.30
2018,02,03,15,02,9.30
2018,02,03,15,03,9.30
2018,02,03,15,04,9.30
2018,02,03,15,05,9.30
2018,02,03,15,06,9.30
2018,02,03,15,07,9.20
2018,02,03,15,08,9.20
2018,02,03,15,09,9.20
2018,02,03,15,27,9.10
2018,02,03,15,28,9.10
2018,02,03,15,29,9.10
2018,02,03,15,30,9.10
2018,02,03,15,31,9.10
2018,02,03,15,32,9.10
2018,02,03,15,33,9.10
2018,02,03,15,34,9.10
2018,02,03,15,35,9.10
2018,02,03,15,36,9.10
2018,02,03,15,37,9.10
2018,02,03,15,38,9.10
2018,02,03,15,39,9.10
2018,02,03,15,40,9.10
2018,02,03,15,41,9.10
2018,02,03,15,42,9.10
2018,02,03,15,43,9.10
2018,02,03,15,44,9.10
2018,02,03,15,45,9.10
2018,02,03,15,46,9.10
2018,02,03,15,47,9.10
2018,02,03,15,48,9.10
2018,02,03,15,49,9.10
2018,02,03,15,50,9.10
2018,02,03,15,51,9.10
2018,02,03,15,52,9.10
2018,02,03,15,53,9.10
2018,02,03,15,54,9.10
2018,02,03,15,55,9.10
2018,02,03,15,56,9.10
2018,02,03,15,57,9.10
2018,02,03,15,58,9.10
2018,02,03,15,59,9.10
2018,02,03,16,00,9.10
2018,02,03,16,01,9.00
2018,02,03,16,02,9.00
2018,02,03,16,03,9.00
2018,02,03,16,04,9.00
2018,02,03,16,05,9.00
2018,02,03,16,06,9.00
2018,02,03,16,07,9.00
2018,02,03,16,08,9.00
2018,02,03,16,09,9.00
2018,02,03,16,10,8.90
2018,02,03,16,11,8.90
2018,02,03,16,12,9.00
2018,02,03,16,13,8.90
2018,02,03,16,14,8.90
2018,02,03,16,15,8.90
2018,02,03,16,16,8.90
2018,02,03,16,17,8.90
2018,02,03,16,18,8.90
2018,02,03,16,19,8.90
2018,02,03,16,20,8.90
2018,02,03,16,21,8.90
2018,02,03,16,22,8.90
2018,02,03,16,23,9.00
2018,02,03,16,24,9.00
2018,02,03,16,25,8.90
2018,02,03,16,26,8.90
2018,02,03,16,27,8.90
2018,02,03,16,28,8.90
2018,02,03,16,29,8.90
2018,02,03,16,30,8.90
2018,02,03,16,31,8.90
2018,02,03,16,32,8.90
2018,02,03,16,33,8.90
2018,02,03,16,34,8.90
2018,02,03,16,35,8.90
2018,02,03,16,36,8.90
2018,02,03,16,37,8.90
2018,02,03,16,38,8.90
2018,02,03,16,39,8.90
2018,02,03,16,40,8.90
2018,02,03,16,41,8.90
2018,02,03,16,42,8.80
2018,02,03,16,43,8.90
2018,02,03,16,44,8.90
2018,02,03,16,45,8.90
2018,02,03,16,46,8.90
2018,02,03,16,47,8.90
2018,02,03,16,48,8.80
2018,02,03,16,49,8.80
2018,02,03,16,50,8.80
2018,02,03,16,51,8.80
2018,02,03,16,52,8.80
2018,02,03,16,53,8.80
2018,02,03,16,54,8.80
2018,02,03,16,55,8.80
2018,02,03,16,56,8.80
2018,02,03,16,57,8.80
2018,02,03,16,58,8.70
2018,02,03,16,59,8.70
2018,02,03,17,00,8.70
2018,02,03,17,01,8.70
2018,02,03,17,02,8.70
2018,02,03,17,03,8.60
2018,02,03,17,04,8.60
2018,02,03,17,05,8.60
2018,02,03,17,06,8.60
2018,02,03,17,07,8.60
2018,02,03,17,08,8.60
2018,02,03,17,09,8.50
2018,02,03,17,10,8.50
2018,02,03,17,11,8.50
2018,02,03,17,12,8.50
2018,02,03,17,13,8.50
2018,02,03,17,14,8.50
2018,02,03,17,15,8.50
2018,02,03,17,16,8.50
2018,02,03,17,17,8.40
2018,02,03,17,18,8.50
2018,02,03,17,19,8.40
2018,02,03,17,20,8.40
2018,02,03,17,21,8.40
2018,02,03,17,22,8.40
2018,02,03,17,23,8.40
2018,02,03,17,24,8.40
2018,02,03,17,25,8.40
2018,02,03,17,26,8.40
2018,02,03,17,27,8.40
2018,02,03,17,28,8.40
2018,02,03,17,29,8.40
2018,02,03,17,30,8.40
2018,02,03,17,31,8.40
2018,02,03,17,32,8.40
2018,02,03,17,33,8.40
2018,02,03,17,34,8.40
2018,02,03,17,35,8.40
2018,02,03,17,36,8.40
2018,02,03,17,37,8.40
2018,02,03,17,38,8.40
2018,02,03,17,39,8.40
2018,02,03,17,40,8.40
2018,02,03,17,41,8.40
2018,02,03,17,42,8.40
2018,02,03,17,43,8.40
2018,02,03,17,44,8.40
2018,02,03,17,45,8.40
2018,02,03,17,46,8.50
2018,02,03,17,47,8.50
2018,02,03,17,48,8.50
2018,02,03,17,49,8.50
2018,02,03,17,50,8.50
2018,02,03,17,51,8.60
2018,02,03,17,52,8.60
2018,02,03,17,53,8.60
2018,02,03,17,54,8.60
2018,02,03,17,55,8.60
2018,02,03,17,56,8.60
2018,02,03,17,57,8.60
2018,02,03,17,58,8.60
2018,02,03,17,59,8.60
2018,02,03,18,00,8.60
2018,02,03,18,01,8.60
2018,02,03,18,02,8.60
2018,02,03,18,03,8.60
2018,02,03,18,04,8.60
2018,02,03,18,05,8.60
2018,02,03,18,06,8.60
2018,02,03,18,07,8.60
2018,02,03,18,08,8.60
2018,02,03,18,09,8.60
2018,02,03,18,10,8.60
2018,02,03,18,11,8.60
2018,02,03,18,12,8.60
2018,02,03,18,13,8.60
2018,02,03,18,14,8.60
2018,02,03,18,15,8.60
2018,02,03,18,16,8.60
2018,02,03,18,17,8.60
2018,02,03,18,18,8.60
2018,02,03,18,19,8.60
2018,02,03,18,20,8.60
2018,02,03,18,21,8.60
2018,02,03,18,22,8.60
2018,02,03,18,23,8.60
2018,02,03,18,24,8.60
2018,02,03,18,25,8.60
2018,02,03,18,26,8.60
2018,02,03,18,27,8.60
2018,02,03,18,28,8.60
2018,02,03,18,29,8.60
2018,02,03,18,30,8.60
2018,02,03,18,31,8.60
2018,02,03,18,32,8.60
2018,02,03,18,33,8.60
2018,02,03,18,34,8.60
2018,02,03,18,35,8.60
2018,02,03,18,36,8.60
2018,02,03,18,37,8.60
2018,02,03,18,38,8.60
2018,02,03,18,39,8.60
2018,02,03,18,40,8.60
2018,02,03,18,41,8.60
2018,02,03,18,42,8.60
2018,02,03,18,43,8.60
2018,02,03,18,44,8.60
2018,02,03,18,45,8.60
2018,02,03,18,46,8.60
2018,02,03,18,47,8.60
2018,02,03,18,48,8.60
2018,02,03,18,49,8.60
2018,02,03,18,50,8.60
2018,02,03,18,51,8.60
2018,02,03,18,52,8.60
2018,02,03,18,53,8.60
2018,02,03,18,54,8.60
2018,02,03,18,55,8.60
2018,02,03,18,56,8.60
2018,02,03,18,57,8.60
2018,02,03,18,58,8.50
2018,02,03,18,59,8.50
2018,02,03,19,00,8.50
2018,02,03,19,01,8.50
2018,02,03,19,02,8.60
2018,02,03,19,03,8.60
2018,02,03,19,04,8.50
2018,02,03,19,05,8.50
2018,02,03,19,06,8.50
2018,02,03,19,07,8.50
2018,02,03,19,08,8.50
2018,02,03,19,09,8.50
2018,02,03,19,10,8.50
2018,02,03,19,11,8.50
2018,02,03,19,12,8.50
2018,02,03,19,13,8.50
2018,02,03,19,14,8.60
2018,02,03,19,15,8.60
2018,02,03,19,16,8.60
2018,02,03,19,17,8.60
2018,02,03,19,18,8.60
2018,02,03,19,19,8.60
2018,02,03,19,20,8.60
2018,02,03,19,21,8.60
2018,02,03,19,22,8.60
2018,02,03,19,23,8.60
2018,02,03,19,24,8.60
2018,02,03,19,25,8.60
2018,02,03,19,26,8.60
2018,02,03,19,27,8.60
2018,02,03,19,28,8.60
2018,02,03,19,29,8.60
2018,02,03,19,30,8.60
2018,02,03,19,31,8.70
2018,02,03,19,32,8.70
2018,02,03,19,33,8.70
2018,02,03,19,34,8.80
2018,02,03,19,35,8.80
2018,02,03,19,36,8.80
2018,02,03,19,37,8.80
2018,02,03,19,38,8.90
2018,02,03,19,39,8.90
2018,02,03,19,40,8.90
2018,02,03,19,41,8.90
2018,02,03,19,42,8.90
2018,02,03,19,43,8.90
2018,02,03,19,44,8.90
2018,02,03,19,45,8.90
2018,02,03,19,46,8.90
2018,02,03,19,47,8.90
2018,02,03,19,48,8.90
2018,02,03,19,49,8.90
2018,02,03,20,00,9.30
2018,02,03,20,10,9.40